TimeCDT,TemperatureF,Dew PointF,Humidity,Sea Level PressureIn,VisibilityMPH,Wind Direction,Wind SpeedMPH,Gust SpeedMPH,PrecipitationIn,Events,Conditions,WindDirDegrees,DateUTC
12:53 AM,69.1,57.9,68,30.01,10.0,SSE,8.1,-,N/A,,Clear,150,2013-06-18 05:53:00
1:53 AM,68.0,57.9,70,30.02,10.0,ESE,3.5,-,N/A,,Clear,110,2013-06-18 06:53:00
2:53 AM,66.0,59.0,78,30.03,10.0,Calm,Calm,-,N/A,,Clear,0,2013-06-18 07:53:00
3:53 AM,64.0,59.0,84,30.04,10.0,WNW,10.4,-,N/A,,Mostly Cloudy,290,2013-06-18 08:53:00
4:53 AM,64.9,55.0,70,30.05,10.0,NNW,12.7,-,0.01,,Overcast,340,2013-06-18 09:53:00
5:16 AM,64.4,55.4,73,30.12,10.0,NNW,10.4,-,N/A,Thunderstorm,Thunderstorm,340,2013-06-18 10:16:00
5:53 AM,62.1,55.9,80,30.10,8.0,West,13.8,-,0.01,Rain-Thunderstorm,Light Thunderstorms and Rain,260,2013-06-18 10:53:00
5:57 AM,60.8,55.4,82,30.13,1.8,North,11.5,20.7,0.10,Rain-Thunderstorm,Thunderstorms and Rain,360,2013-06-18 10:57:00
6:06 AM,60.8,55.4,82,30.11,3.0,North,15.0,-,0.10,Rain-Thunderstorm,Light Thunderstorms and Rain,360,2013-06-18 11:06:00
6:17 AM,60.8,55.4,82,30.10,10.0,NNE,9.2,-,0.10,Thunderstorm,Thunderstorm,20,2013-06-18 11:17:00
6:29 AM,60.8,55.4,82,30.10,10.0,Variable,4.6,-,0.10,,Mostly Cloudy,0,2013-06-18 11:29:00
6:53 AM,61.0,57.0,87,30.05,10.0,East,9.2,-,0.10,,Mostly Cloudy,90,2013-06-18 11:53:00
7:53 AM,62.1,57.9,86,30.06,10.0,East,9.2,-,0.01,,Clear,100,2013-06-18 12:53:00
8:53 AM,64.9,60.1,84,30.05,10.0,ESE,5.8,-,N/A,,Clear,110,2013-06-18 13:53:00
9:53 AM,66.9,60.1,79,30.04,10.0,Calm,Calm,-,N/A,,Clear,0,2013-06-18 14:53:00
10:53 AM,71.1,61.0,70,30.02,10.0,WSW,3.5,-,N/A,,Clear,240,2013-06-18 15:53:00
11:53 AM,78.1,62.1,58,30.00,10.0,Variable,4.6,-,N/A,,Clear,0,2013-06-18 16:53:00
12:53 PM,82.9,57.9,42,29.98,10.0,West,8.1,-,N/A,,Clear,260,2013-06-18 17:53:00
1:53 PM,84.9,52.0,32,29.95,10.0,Calm,Calm,-,N/A,,Clear,0,2013-06-18 18:53:00
2:53 PM,89.1,50.0,26,29.93,10.0,Variable,4.6,-,N/A,,Clear,0,2013-06-18 19:53:00
3:53 PM,89.1,53.1,29,29.91,10.0,ESE,9.2,-,N/A,,Clear,110,2013-06-18 20:53:00
4:53 PM,87.1,57.9,37,29.89,10.0,ESE,16.1,-,N/A,,Clear,110,2013-06-18 21:53:00
5:53 PM,84.9,55.9,37,29.89,10.0,East,17.3,25.3,N/A,,Clear,100,2013-06-18 22:53:00
6:53 PM,84.0,57.0,40,29.88,10.0,ESE,17.3,24.2,N/A,,Clear,110,2013-06-18 23:53:00
7:53 PM,81.0,52.0,36,29.89,10.0,SE,11.5,-,N/A,,Clear,130,2013-06-19 00:53:00
8:53 PM,77.0,57.0,50,29.90,10.0,SE,13.8,23.0,N/A,,Clear,130,2013-06-19 01:53:00
9:53 PM,73.0,59.0,61,29.91,10.0,ESE,10.4,-,N/A,,Clear,110,2013-06-19 02:53:00
10:53 PM,71.1,55.9,59,29.94,10.0,SE,12.7,20.7,N/A,,Mostly Cloudy,130,2013-06-19 03:53:00
11:53 PM,69.1,55.9,63,29.96,10.0,SSW,10.4,-,N/A,,Mostly Cloudy,200,2013-06-19 04:53:00